Weather History for Marathon, FL

Change the Weather History Date:

Wednesday, October 31, 2012

  Actual Average Record
Temperature  
Mean Temperature 72 °F 78 °F  
Max Temperature 78 °F 83 °F 89 °F (1997)
Min Temperature 66 °F 73 °F 66 °F (2012)
Degree Days  
Heating Degree Days 0 0  
Month to date heating degree days 0 0  
Since 1 July heating degree days 0 0  
Cooling Degree Days 7 13  
Month to date cooling degree days 515 485  
Year to date cooling degree days 4758 4439  
Growing Degree Days 22 (Base 50)    
Moisture  
Dew Point 54 °F    
Average Humidity 58    
Maximum Humidity 73    
Minimum Humidity 43    
Precipitation  
Precipitation 0.00 in 0.13 in 2.01 in (2011)
Month to date precipitation 3.67 4.78  
Year to date precipitation 43.80 41.33  
Snow  
Snow 0.00 in - - ()
Month to date snowfall 0.0  
Since 1 July snowfall 0.0  
Since 1 September snowfall 0.0  
Snow Depth 0.00 in    
Sea Level Pressure  
Sea Level Pressure 30.04 in    
Wind  
Wind Speed 4 mph (NW)    
Max Wind Speed 9 mph    
Max Gust Speed 14 mph    
Visibility 10 miles    
Events      
T = Trace of Precipitation, MM = Missing Value Source: NWS Daily Summary

Daily Weather History Graph

Daily Weather History Graph

Search for Another Location

Airport:

Trip Planner

Search our weather history database for the weather conditions in past years. The results will help you decide how hot, cold, wet, or windy it might be!

Date:

Astronomy

Oct. 31, 2012 Rise Set
Actual Time 7:30 AM EDT 6:44 PM EDT
Civil Twilight 7:07 AM EDT 7:07 PM EDT
Nautical Twilight 6:40 AM EDT 7:34 PM EDT
Astronomical Twilight 6:13 AM EDT 8:01 PM EDT
Moon 8:06 PM EDT (10/31) 8:59 AM EDT (10/31)
Length of Visible Light 12h 00m
Length of Day
11h 13m
Full, 97% of the Moon is Illuminated
Oct 31
Full
Nov 6
Last Quarter
Nov 13
New
Nov 20
First Quarter
Nov 28
Full

Hourly Weather History & Observations

Time (EDT) Temp. Dew Point Humidity Pressure Visibility Wind Dir Wind Speed Gust Speed Precip Events Conditions
12:53 AM 69.1 °F 50.0 °F 51% 30.03 in 10.0 mi WNW 6.9 mph - N/A   Clear
1:53 AM 66.9 °F 51.1 °F 57% 30.03 in 10.0 mi West 3.5 mph - N/A   Clear
2:53 AM 66.0 °F 53.1 °F 63% 30.02 in 10.0 mi WNW 3.5 mph - N/A   Scattered Clouds
3:53 AM 69.1 °F 52.0 °F 54% 30.02 in 10.0 mi NW 6.9 mph - N/A   Clear
4:53 AM 69.1 °F 51.1 °F 53% 30.02 in 10.0 mi NW 5.8 mph - N/A   Partly Cloudy
5:53 AM 70.0 °F 51.1 °F 51% 30.02 in 10.0 mi NNW 5.8 mph - N/A   Mostly Cloudy
6:53 AM 68.0 °F 55.0 °F 63% 30.03 in 10.0 mi NNE 4.6 mph - N/A   Partly Cloudy
7:53 AM 66.0 °F 55.0 °F 68% 30.04 in 10.0 mi Calm Calm - N/A   Clear
8:53 AM 71.1 °F 54.0 °F 55% 30.06 in 10.0 mi Calm Calm - N/A   Clear
9:53 AM 73.0 °F 55.0 °F 53% 30.06 in 10.0 mi NE 4.6 mph - N/A   Clear
10:53 AM 72.0 °F 55.0 °F 55% 30.09 in 10.0 mi Variable 3.5 mph - N/A   Clear
11:53 AM 75.0 °F 53.1 °F 46% 30.07 in 10.0 mi NW 4.6 mph - N/A   Clear
12:53 PM 75.9 °F 54.0 °F 46% 30.06 in 10.0 mi NW 4.6 mph - N/A   Clear
1:53 PM 75.9 °F 54.0 °F 46% 30.04 in 10.0 mi Variable 4.6 mph - N/A   Clear
3:53 PM 77.0 °F 54.0 °F 45% 30.01 in 10.0 mi Variable 6.9 mph - N/A   Clear
4:53 PM 77.0 °F 55.0 °F 47% 30.01 in 10.0 mi WNW 6.9 mph - N/A   Clear
5:53 PM 75.0 °F 55.0 °F 50% 30.02 in 10.0 mi WNW 4.6 mph - N/A   Partly Cloudy
6:53 PM 73.0 °F 55.0 °F 53% 30.02 in 10.0 mi WNW 4.6 mph - N/A   Clear
7:53 PM 72.0 °F 57.9 °F 61% 30.03 in 10.0 mi North 4.6 mph - N/A   Clear
8:53 PM 71.1 °F 57.9 °F 63% 30.05 in 10.0 mi North 3.5 mph - N/A   Clear
9:53 PM 70.0 °F 57.9 °F 65% 30.07 in 10.0 mi NNW 4.6 mph - N/A   Clear
10:53 PM 69.1 °F 57.9 °F 68% 30.08 in 10.0 mi Calm Calm - N/A   Clear
11:53 PM 66.9 °F 57.9 °F 73% 30.08 in 10.0 mi Calm Calm - N/A   Clear